Tracking 31027 objects as of 19-Jul-2025
HD Live streaming from Space Station
objects crossing your sky now

SL-16 DEB

Track SL-16 DEB now!
10-day predictions


NORAD ID: 22347
Int'l Code: 1992-093AL
Perigee: 769.2 km
Apogee: 999.6 km
Inclination: 70.8 °
Period: 102.5 minutes
Semi major axis: 7255 km
RCS: 0.053 m2 (small)
Launch date: December 25, 1992
Source: Commonwealth of Independent States (former USSR) (CIS)
Launch site: TYURATAM MISSILE AND SPACE COMPLEX (TTMTR)

Note: This is SATELLITE DEBRIS
Your satellite tracking list
Your tracking list is empty




NASA's NSSDC Master Catalog

Two Line Element Set (TLE):
1 22347U 92093AL  25198.00270639  .00001845  00000-0  10533-2 0  9995
2 22347  70.8365  61.4492 0158814 155.1790 323.5589 14.04786342643029
Source of the keplerian elements: AFSPC